Welcome to the New NWS' Forecast!
Most changes are behind the scenes, but click here for differences you might notice.

Regional Weather Roundup (RWR)

Issued by National Weather Service (NWS)

                            
438 
ASUS44 KLIX 150406
RWRLA 
LOUISIANA WEATHER ROUNDUP
NATIONAL WEATHER SERVICE NEW ORLEANS LA
1100 PM CDT TUE AUG 14 2018

NOTE: "FAIR" INDICATES FEW OR NO CLOUDS BELOW 12,000 FEET WITH NO
      SIGNIFICANT WEATHER AND/OR OBSTRUCTIONS TO VISIBILITY.
      SKY/WX - SKY CONDITION AND SIGNIFICANT WEATHER.
      TMP - AIR TEMPERATURE.    DP   - DEWPOINT TEMPERATURE.
      RH  - RELATIVE HUMIDITY.  PRES - PRESSURE.
      HX  - HEAT INDEX.         WCI  - WIND CHILL INDEX.

*  THESE STATIONS ARE NOT NWS OR FAA STATIONS AND ARE NOT UNDER
   NWS QUALITY CONTROL.

LAZ040-048-061>063-065-066-069-150500-
SOUTHEAST LOUISIANA
  
CITY           SKY/WX    TMP DP  RH WIND       PRES   REMARKS
N.O. INTL ARPT FAIR      81  76  84 S5        30.01F                  
N.O. LAKEFRONT FAIR      84  73  69 S6        30.02S                  
N.O. DOWNTOWN* FAIR      87  74  64 S3        30.03S HX  95           
RESERVE*         N/A     80  74  79 CALM      30.01F                  
SLIDELL        FAIR      83  74  74 SW5       30.01S                  
BATON ROUGE    FAIR      82  74  76 SW3       30.00S                  
BOOTHVILLE     FAIR      84  75  74 W3        30.02                   
BELLE CHASSE   FAIR      77  77 100 CALM      30.01R                  
BOGALUSA*      FAIR      80  75  86 CALM      30.01S                  
GALLIANO*      FAIR      75  71  86 CALM      30.01F FOG              
NEW ROADS*       N/A     79  74  86 CALM      30.01S                  
GONZALES*      FAIR      79  74  83 CALM      30.01S                  
HAMMOND*         N/A     79  73  83 CALM      30.01S                  
HOUMA*         FAIR      77  76  98 CALM      30.02S                  
PORT FOURCHON* CLEAR     84  72  65 CALM      30.02S                  

$$

LAZ041-044-053-054-150500-
SOUTHWEST LOUISIANA
  
CITY           SKY/WX    TMP DP  RH WIND       PRES   REMARKS
LAKE CHARLES   FAIR      79  75  87 SE5       30.00R                  
LAFAYETTE      FAIR      81  74  79 S3        30.01R                  
PATTERSON      FAIR      79  78  97 CALM      30.02S                  
SALT POINT       N/A    N/A N/A N/A CALM      29.99F                  
NEW IBERIA     FAIR      78  74  87 SW3       30.02R                  
CHENAULT AIRPK FAIR      76  74  95 E7        30.01R                  

$$

LAZ027-028-150500-
CENTRAL LOUISIANA
  
CITY           SKY/WX    TMP DP  RH WIND       PRES   REMARKS
FORT POLK      FAIR      80  70  70 SW6       30.00R                  
ALEXANDRIA INT FAIR      79  73  82 SE6       29.98R                  
ALEXANDRIA     FAIR      75  74  96 CALM      30.00R                  

$$

LAZ001-002-150500-
NORTHWEST LOUISIANA
  
CITY           SKY/WX    TMP DP  RH WIND       PRES   REMARKS
SHREVEPORT     MOCLDY    81  72  74 S6        29.96R                  
BARKSDALE AFB  FAIR      79  72  79 SE6       29.95R                  
DTN SHREVEPORT FAIR      84  73  69 SE6       29.96R                  

$$

LAZ014-016-150500-
NORTHEAST LOUISIANA
  
CITY           SKY/WX    TMP DP  RH WIND       PRES   REMARKS
MONROE         FAIR      81  72  74 S3        29.99R                  
TALLULAH       FAIR      76  76 100 CALM      30.00R                  

$$